Time,TemperatureF,DewpointF,PressureIn,WindDirection,WindDirectionDegrees,WindSpeedMPH,WindSpeedGustMPH,Humidity,HourlyPrecipIn,Conditions,Clouds,dailyrainin,SoftwareType,DateUTC
2013-03-05 00:01:00,24.0,22.0,29.89,ESE,103,0.0,-999.0,91,-99.99,,,-99.99,,2013-03-05 06:01:00,
2013-03-05 00:11:00,24.0,22.0,29.89,ESE,103,0.0,-999.0,91,-99.99,,,-99.99,,2013-03-05 06:11:00,
2013-03-05 00:22:00,24.0,22.0,29.88,ESE,110,0.0,-999.0,91,-99.99,,,-99.99,,2013-03-05 06:22:00,
2013-03-05 00:31:00,24.0,22.0,29.88,ESE,110,0.0,-999.0,91,-99.99,,,-99.99,,2013-03-05 06:31:00,
2013-03-05 00:41:00,24.0,22.0,29.88,ESE,110,0.0,-999.0,91,-99.99,,,-99.99,,2013-03-05 06:41:00,
2013-03-05 00:52:00,24.0,22.0,29.88,ESE,117,0.0,-999.0,91,-99.99,,,-99.99,,2013-03-05 06:52:00,
2013-03-05 01:01:00,24.0,22.0,29.88,ESE,117,0.0,-999.0,92,-99.99,,,-99.99,,2013-03-05 07:01:00,
2013-03-05 01:11:00,24.0,22.0,29.88,ESE,117,0.0,-999.0,92,-99.99,,,-99.99,,2013-03-05 07:11:00,
2013-03-05 01:22:00,24.0,22.0,29.88,ESE,115,0.0,-999.0,92,-99.99,,,-99.99,,2013-03-05 07:22:00,
2013-03-05 01:31:00,24.0,22.0,29.88,ESE,115,0.0,-999.0,92,-99.99,,,-99.99,,2013-03-05 07:31:00,
2013-03-05 01:41:00,24.0,22.0,29.88,ESE,115,0.0,-999.0,92,-99.99,,,-99.99,,2013-03-05 07:41:00,
2013-03-05 01:52:00,24.0,22.0,29.90,ESE,113,0.0,-999.0,92,-99.99,,,-99.99,,2013-03-05 07:52:00,
2013-03-05 02:02:00,24.0,22.0,29.90,ESE,113,0.0,-999.0,91,-99.99,,,-99.99,,2013-03-05 08:02:00,
2013-03-05 02:11:00,24.0,22.0,29.90,ESE,113,0.0,-999.0,91,-99.99,,,-99.99,,2013-03-05 08:11:00,
2013-03-05 02:21:00,24.0,22.0,29.90,ESE,115,0.0,-999.0,91,-99.99,,,-99.99,,2013-03-05 08:21:00,
2013-03-05 02:31:00,24.0,22.0,29.90,ESE,115,0.0,-999.0,91,-99.99,,,-99.99,,2013-03-05 08:31:00,
2013-03-05 02:41:00,24.0,22.0,29.90,ESE,115,0.0,-999.0,91,-99.99,,,-99.99,,2013-03-05 08:41:00,
2013-03-05 02:52:00,24.0,22.0,29.89,ESE,115,0.0,-999.0,92,-99.99,,,-99.99,,2013-03-05 08:52:00,
2013-03-05 03:01:00,24.0,22.0,29.89,ESE,115,0.0,-999.0,92,-99.99,,,-99.99,,2013-03-05 09:01:00,
2013-03-05 03:11:00,24.0,22.0,29.89,ESE,115,0.0,-999.0,92,-99.99,,,-99.99,,2013-03-05 09:11:00,
2013-03-05 03:21:00,24.0,22.0,29.89,East,84,0.0,-999.0,92,-99.99,,,-99.99,,2013-03-05 09:21:00,
2013-03-05 03:31:00,24.0,22.0,29.88,ENE,61,0.0,-999.0,92,-99.99,,,-99.99,,2013-03-05 09:31:00,
2013-03-05 03:42:00,24.0,22.0,29.88,ENE,61,0.0,-999.0,92,-99.99,,,-99.99,,2013-03-05 09:42:00,
2013-03-05 03:52:00,24.0,22.0,29.85,NE,54,0.0,-999.0,92,-99.99,,,-99.99,,2013-03-05 09:52:00,
2013-03-05 04:01:00,24.0,22.0,29.86,SE,124,0.0,-999.0,92,-99.99,,,-99.99,,2013-03-05 10:01:00,
2013-03-05 04:11:00,24.0,22.0,29.86,SE,124,0.0,-999.0,92,-99.99,,,-99.99,,2013-03-05 10:11:00,
2013-03-05 04:21:00,24.0,22.0,29.86,SE,135,0.0,-999.0,92,-99.99,,,-99.99,,2013-03-05 10:21:00,
2013-03-05 04:32:00,24.0,22.0,29.86,East,82,0.0,-999.0,92,-99.99,,,-99.99,,2013-03-05 10:32:00,
2013-03-05 04:42:00,24.0,22.0,29.86,East,82,0.0,-999.0,92,-99.99,,,-99.99,,2013-03-05 10:42:00,
2013-03-05 04:52:00,24.0,22.0,29.86,East,84,0.0,-999.0,92,-99.99,,,-99.99,,2013-03-05 10:52:00,
2013-03-05 05:01:00,24.0,22.0,29.86,ESE,122,1.0,-999.0,92,-99.99,,,-99.99,,2013-03-05 11:01:00,
2013-03-05 05:11:00,24.0,22.0,29.86,ESE,122,1.0,-999.0,92,-99.99,,,-99.99,,2013-03-05 11:11:00,
2013-03-05 05:22:00,24.0,22.0,29.86,East,97,0.0,-999.0,92,-99.99,,,-99.99,,2013-03-05 11:22:00,
2013-03-05 05:32:00,24.0,22.0,29.86,ENE,69,0.0,-999.0,92,-99.99,,,-99.99,,2013-03-05 11:32:00,
2013-03-05 05:42:00,24.0,22.0,29.86,ENE,69,0.0,-999.0,92,-99.99,,,-99.99,,2013-03-05 11:42:00,
2013-03-05 05:52:00,23.0,21.0,29.86,East,96,0.0,-999.0,92,-99.99,,,-99.99,,2013-03-05 11:52:00,
2013-03-05 06:02:00,23.0,21.0,29.86,ENE,73,0.0,-999.0,92,-99.99,,,-99.99,,2013-03-05 12:02:00,
2013-03-05 06:11:00,23.0,21.0,29.86,ENE,73,0.0,-999.0,92,-99.99,,,-99.99,,2013-03-05 12:11:00,
2013-03-05 06:22:00,23.0,21.0,29.87,ESE,103,0.0,-999.0,92,-99.99,,,-99.99,,2013-03-05 12:22:00,
2013-03-05 06:32:00,23.0,21.0,29.87,ESE,103,0.0,-999.0,92,-99.99,,,-99.99,,2013-03-05 12:32:00,
2013-03-05 06:42:00,23.0,21.0,29.87,ESE,103,0.0,-999.0,92,-99.99,,,-99.99,,2013-03-05 12:42:00,
2013-03-05 06:52:00,23.0,21.0,29.88,NNE,22,0.0,-999.0,92,-99.99,,,-99.99,,2013-03-05 12:52:00,
2013-03-05 07:02:00,23.0,21.0,29.88,ENE,65,0.0,-999.0,92,-99.99,,,-99.99,,2013-03-05 13:02:00,
2013-03-05 07:11:00,23.0,21.0,29.88,ENE,65,0.0,-999.0,92,-99.99,,,-99.99,,2013-03-05 13:11:00,
2013-03-05 07:21:00,23.0,21.0,29.88,ENE,65,0.0,-999.0,92,-99.99,,,-99.99,,2013-03-05 13:21:00,
2013-03-05 07:32:00,23.0,21.0,29.88,ENE,65,0.0,-999.0,92,-99.99,,,-99.99,,2013-03-05 13:32:00,
2013-03-05 07:42:00,23.0,21.0,29.88,ENE,65,0.0,-999.0,92,-99.99,,,-99.99,,2013-03-05 13:42:00,
2013-03-05 07:52:00,23.0,21.0,29.88,ENE,65,0.0,-999.0,92,-99.99,,,-99.99,,2013-03-05 13:52:00,
2013-03-05 08:02:00,23.0,21.0,29.89,ENE,65,0.0,-999.0,92,-99.99,,,-99.99,,2013-03-05 14:02:00,
2013-03-05 08:11:00,23.0,21.0,29.89,ENE,65,0.0,-999.0,92,-99.99,,,-99.99,,2013-03-05 14:11:00,
2013-03-05 08:21:00,24.0,22.0,29.89,ENE,65,0.0,-999.0,92,-99.99,,,-99.99,,2013-03-05 14:21:00,
2013-03-05 08:32:00,24.0,22.0,29.89,ENE,65,0.0,-999.0,92,-99.99,,,-99.99,,2013-03-05 14:32:00,
2013-03-05 08:42:00,24.0,22.0,29.89,ENE,65,0.0,-999.0,92,-99.99,,,-99.99,,2013-03-05 14:42:00,
2013-03-05 08:52:00,24.0,22.0,29.91,ENE,65,0.0,-999.0,92,-99.99,,,-99.99,,2013-03-05 14:52:00,
2013-03-05 09:01:00,24.0,22.0,29.91,ENE,65,0.0,-999.0,91,-99.99,,,-99.99,,2013-03-05 15:01:00,
2013-03-05 09:11:00,24.0,22.0,29.91,ENE,65,0.0,-999.0,91,-99.99,,,-99.99,,2013-03-05 15:11:00,
2013-03-05 09:21:00,24.0,22.0,29.91,NE,55,1.0,-999.0,91,-99.99,,,-99.99,,2013-03-05 15:21:00,
2013-03-05 09:32:00,24.0,22.0,29.91,NE,55,0.0,-999.0,91,-99.99,,,-99.99,,2013-03-05 15:32:00,
2013-03-05 09:42:00,24.0,22.0,29.91,NE,55,0.0,-999.0,91,-99.99,,,-99.99,,2013-03-05 15:42:00,
2013-03-05 09:52:00,24.0,22.0,29.91,NE,55,1.0,-999.0,91,-99.99,,,-99.99,,2013-03-05 15:52:00,
2013-03-05 10:01:00,24.0,22.0,29.92,ENE,67,1.0,-999.0,90,-99.99,,,-99.99,,2013-03-05 16:01:00,
2013-03-05 10:11:00,24.0,22.0,29.92,ENE,67,1.0,-999.0,90,-99.99,,,-99.99,,2013-03-05 16:11:00,
2013-03-05 10:21:00,24.0,22.0,29.93,NE,35,2.0,-999.0,90,-99.99,,,-99.99,,2013-03-05 16:21:00,
2013-03-05 10:32:00,24.0,22.0,29.93,NNE,25,1.0,-999.0,90,-99.99,,,-99.99,,2013-03-05 16:32:00,
2013-03-05 10:42:00,24.0,22.0,29.93,NNE,25,1.0,-999.0,90,-99.99,,,-99.99,,2013-03-05 16:42:00,
2013-03-05 10:52:00,25.0,22.0,29.94,NE,52,1.0,-999.0,90,-99.99,,,-99.99,,2013-03-05 16:52:00,
2013-03-05 11:01:00,25.0,22.0,29.94,NE,34,1.0,-999.0,90,-99.99,,,-99.99,,2013-03-05 17:01:00,
2013-03-05 11:11:00,25.0,22.0,29.94,NE,34,1.0,-999.0,90,-99.99,,,-99.99,,2013-03-05 17:11:00,
2013-03-05 11:21:00,25.0,22.0,29.95,NE,51,1.0,-999.0,90,-99.99,,,-99.99,,2013-03-05 17:21:00,
2013-03-05 11:32:00,25.0,22.0,29.95,NE,48,2.0,-999.0,89,-99.99,,,-99.99,,2013-03-05 17:32:00,
2013-03-05 11:42:00,25.0,22.0,29.95,NE,48,2.0,-999.0,89,-99.99,,,-99.99,,2013-03-05 17:42:00,
2013-03-05 11:52:00,25.0,22.0,29.96,NNE,13,1.0,-999.0,90,-99.99,,,-99.99,,2013-03-05 17:52:00,
2013-03-05 12:01:00,25.0,22.0,29.96,NNE,19,2.0,-999.0,90,-99.99,,,-99.99,,2013-03-05 18:01:00,
2013-03-05 12:11:00,25.0,22.0,29.96,NNE,19,2.0,-999.0,90,-99.99,,,-99.99,,2013-03-05 18:11:00,
2013-03-05 12:21:00,26.0,23.0,29.99,NE,35,2.0,-999.0,89,-99.99,,,-99.99,,2013-03-05 18:21:00,
2013-03-05 12:32:00,26.0,23.0,29.99,NNE,13,2.0,-999.0,89,-99.99,,,-99.99,,2013-03-05 18:32:00,
2013-03-05 12:42:00,26.0,23.0,29.99,NNE,13,2.0,-999.0,89,-99.99,,,-99.99,,2013-03-05 18:42:00,
2013-03-05 12:53:00,26.0,23.0,29.99,North,360,2.0,-999.0,88,-99.99,,,-99.99,,2013-03-05 18:53:00,
2013-03-05 13:01:00,27.0,24.0,29.99,NNE,16,3.0,-999.0,87,-99.99,,,-99.99,,2013-03-05 19:01:00,
2013-03-05 13:11:00,27.0,24.0,29.99,NNE,16,3.0,-999.0,87,-99.99,,,-99.99,,2013-03-05 19:11:00,
2013-03-05 13:21:00,28.0,25.0,29.99,NNE,20,2.0,-999.0,87,-99.99,,,-99.99,,2013-03-05 19:21:00,
2013-03-05 13:32:00,28.0,24.0,29.99,NNW,336,3.0,-999.0,86,-99.99,,,-99.99,,2013-03-05 19:32:00,
2013-03-05 13:42:00,28.0,24.0,29.99,NNW,336,3.0,-999.0,86,-99.99,,,-99.99,,2013-03-05 19:42:00,
2013-03-05 13:52:00,28.0,24.0,29.99,NNW,344,3.0,-999.0,85,-99.99,,,-99.99,,2013-03-05 19:52:00,
2013-03-05 14:01:00,28.0,24.0,29.99,NNE,19,3.0,-999.0,86,-99.99,,,-99.99,,2013-03-05 20:01:00,
2013-03-05 14:11:00,28.0,24.0,29.99,North,360,3.0,-999.0,86,-99.99,,,-99.99,,2013-03-05 20:11:00,
2013-03-05 14:21:00,28.0,24.0,29.99,North,360,3.0,-999.0,86,-99.99,,,-99.99,,2013-03-05 20:21:00,
2013-03-05 14:32:00,28.0,24.0,29.99,North,5,3.0,-999.0,86,-99.99,,,-99.99,,2013-03-05 20:32:00,
2013-03-05 14:41:00,28.0,24.0,29.99,North,5,3.0,-999.0,86,-99.99,,,-99.99,,2013-03-05 20:41:00,
2013-03-05 14:52:00,28.0,24.0,30.00,NNE,26,2.0,-999.0,86,-99.99,,,-99.99,,2013-03-05 20:52:00,
2013-03-05 15:01:00,29.0,25.0,30.00,NNE,24,3.0,-999.0,85,-99.99,,,-99.99,,2013-03-05 21:01:00,
2013-03-05 15:11:00,29.0,25.0,30.00,NNE,24,3.0,-999.0,85,-99.99,,,-99.99,,2013-03-05 21:11:00,
2013-03-05 15:21:00,28.0,24.0,30.01,NE,47,4.0,-999.0,84,-99.99,,,-99.99,,2013-03-05 21:21:00,
2013-03-05 15:31:00,27.0,23.0,30.02,NE,53,3.0,-999.0,85,-99.99,,,-99.99,,2013-03-05 21:31:00,
2013-03-05 15:42:00,27.0,23.0,30.02,NE,53,3.0,-999.0,85,-99.99,,,-99.99,,2013-03-05 21:42:00,
2013-03-05 15:52:00,28.0,24.0,30.03,NNW,344,3.0,-999.0,84,-99.99,,,-99.99,,2013-03-05 21:52:00,
2013-03-05 16:01:00,28.0,24.0,30.04,East,80,3.0,-999.0,84,-99.99,,,-99.99,,2013-03-05 22:01:00,
2013-03-05 16:11:00,28.0,24.0,30.04,East,80,3.0,-999.0,84,-99.99,,,-99.99,,2013-03-05 22:11:00,
2013-03-05 16:21:00,27.0,23.0,30.05,North,355,3.0,-999.0,83,-99.99,,,-99.99,,2013-03-05 22:21:00,
2013-03-05 16:32:00,27.0,23.0,30.06,NE,50,3.0,-999.0,84,-99.99,,,-99.99,,2013-03-05 22:32:00,
2013-03-05 16:41:00,27.0,23.0,30.06,NE,50,3.0,-999.0,84,-99.99,,,-99.99,,2013-03-05 22:41:00,
2013-03-05 16:52:00,27.0,23.0,30.06,NNW,345,3.0,-999.0,83,-99.99,,,-99.99,,2013-03-05 22:52:00,
2013-03-05 17:01:00,27.0,23.0,30.08,NNE,18,3.0,-999.0,83,-99.99,,,-99.99,,2013-03-05 23:01:00,
2013-03-05 17:11:00,27.0,23.0,30.08,NNE,18,3.0,-999.0,83,-99.99,,,-99.99,,2013-03-05 23:11:00,
2013-03-05 17:21:00,28.0,23.0,30.08,North,355,3.0,-999.0,81,-99.99,,,-99.99,,2013-03-05 23:21:00,
2013-03-05 17:32:00,28.0,23.0,30.08,NNW,348,3.0,-999.0,81,-99.99,,,-99.99,,2013-03-05 23:32:00,
2013-03-05 17:42:00,28.0,23.0,30.08,NNW,348,3.0,-999.0,81,-99.99,,,-99.99,,2013-03-05 23:42:00,
2013-03-05 17:53:00,26.0,21.0,30.06,NNE,14,2.0,-999.0,80,-99.99,,,-99.99,,2013-03-05 23:53:00,
2013-03-05 18:01:00,26.0,21.0,30.07,North,351,1.0,-999.0,81,-99.99,,,-99.99,,2013-03-06 00:01:00,
2013-03-05 18:11:00,26.0,21.0,30.07,North,351,1.0,-999.0,81,-99.99,,,-99.99,,2013-03-06 00:11:00,
2013-03-05 18:21:00,26.0,21.0,30.08,North,355,2.0,-999.0,82,-99.99,,,-99.99,,2013-03-06 00:21:00,
2013-03-05 18:32:00,25.0,20.0,30.08,North,5,2.0,-999.0,82,-99.99,,,-99.99,,2013-03-06 00:32:00,
2013-03-05 18:41:00,25.0,20.0,30.08,North,5,2.0,-999.0,82,-99.99,,,-99.99,,2013-03-06 00:41:00,
2013-03-05 18:52:00,25.0,21.0,30.10,NNW,335,0.0,-999.0,84,-99.99,,,-99.99,,2013-03-06 00:52:00,
2013-03-05 19:01:00,25.0,21.0,30.10,NNW,335,0.0,-999.0,84,-99.99,,,-99.99,,2013-03-06 01:01:00,
2013-03-05 19:11:00,25.0,21.0,30.10,NNW,335,0.0,-999.0,84,-99.99,,,-99.99,,2013-03-06 01:11:00,
2013-03-05 19:21:00,25.0,21.0,30.10,NW,316,1.0,-999.0,86,-99.99,,,-99.99,,2013-03-06 01:21:00,
2013-03-05 19:32:00,25.0,21.0,30.10,NNW,336,1.0,-999.0,86,-99.99,,,-99.99,,2013-03-06 01:32:00,
2013-03-05 19:42:00,25.0,21.0,30.10,NNW,336,1.0,-999.0,86,-99.99,,,-99.99,,2013-03-06 01:42:00,
2013-03-05 19:52:00,25.0,22.0,30.11,North,9,2.0,-999.0,87,-99.99,,,-99.99,,2013-03-06 01:52:00,
2013-03-05 20:01:00,26.0,23.0,30.11,North,360,2.0,-999.0,88,-99.99,,,-99.99,,2013-03-06 02:01:00,
2013-03-05 20:11:00,26.0,23.0,30.11,North,360,2.0,-999.0,88,-99.99,,,-99.99,,2013-03-06 02:11:00,
2013-03-05 20:22:00,26.0,23.0,30.14,North,11,4.0,-999.0,87,-99.99,,,-99.99,,2013-03-06 02:22:00,
2013-03-05 20:32:00,26.0,22.0,30.14,North,350,3.0,-999.0,86,-99.99,,,-99.99,,2013-03-06 02:32:00,
2013-03-05 20:42:00,26.0,22.0,30.14,North,350,3.0,-999.0,86,-99.99,,,-99.99,,2013-03-06 02:42:00,
2013-03-05 20:52:00,25.0,21.0,30.13,NNW,336,3.0,-999.0,86,-99.99,,,-99.99,,2013-03-06 02:52:00,
2013-03-05 21:01:00,25.0,21.0,30.13,NNW,348,3.0,-999.0,86,-99.99,,,-99.99,,2013-03-06 03:01:00,
2013-03-05 21:11:00,25.0,21.0,30.13,NNW,348,3.0,-999.0,86,-99.99,,,-99.99,,2013-03-06 03:11:00,
2013-03-05 21:22:00,24.0,20.0,30.14,North,349,2.0,-999.0,86,-99.99,,,-99.99,,2013-03-06 03:22:00,
2013-03-05 21:32:00,23.0,19.0,30.14,North,355,1.0,-999.0,86,-99.99,,,-99.99,,2013-03-06 03:32:00,
2013-03-05 21:42:00,23.0,19.0,30.14,North,355,1.0,-999.0,86,-99.99,,,-99.99,,2013-03-06 03:42:00,
2013-03-05 21:52:00,22.0,19.0,30.16,North,360,2.0,-999.0,87,-99.99,,,-99.99,,2013-03-06 03:52:00,
2013-03-05 22:02:00,22.0,19.0,30.16,NNW,346,2.0,-999.0,87,-99.99,,,-99.99,,2013-03-06 04:02:00,
2013-03-05 22:11:00,22.0,19.0,30.16,NNW,346,2.0,-999.0,87,-99.99,,,-99.99,,2013-03-06 04:11:00,
2013-03-05 22:21:00,21.0,18.0,30.17,NNW,334,2.0,-999.0,87,-99.99,,,-99.99,,2013-03-06 04:21:00,
2013-03-05 22:32:00,21.0,18.0,30.17,NNW,336,1.0,-999.0,87,-99.99,,,-99.99,,2013-03-06 04:32:00,
2013-03-05 22:41:00,21.0,18.0,30.17,NNW,336,1.0,-999.0,87,-99.99,,,-99.99,,2013-03-06 04:41:00,
2013-03-05 22:52:00,21.0,18.0,30.16,NNW,346,1.0,-999.0,88,-99.99,,,-99.99,,2013-03-06 04:52:00,
2013-03-05 23:01:00,21.0,18.0,30.17,North,351,2.0,-999.0,87,-99.99,,,-99.99,,2013-03-06 05:01:00,
2013-03-05 23:11:00,21.0,18.0,30.17,North,351,2.0,-999.0,87,-99.99,,,-99.99,,2013-03-06 05:11:00,
2013-03-05 23:22:00,22.0,18.0,30.17,North,9,1.0,-999.0,86,-99.99,,,-99.99,,2013-03-06 05:22:00,
2013-03-05 23:32:00,22.0,18.0,30.18,North,360,1.0,-999.0,86,-99.99,,,-99.99,,2013-03-06 05:32:00,
2013-03-05 23:42:00,22.0,18.0,30.18,North,360,1.0,-999.0,86,-99.99,,,-99.99,,2013-03-06 05:42:00,
2013-03-05 23:52:00,22.0,18.0,30.18,NNE,19,1.0,-999.0,86,-99.99,,,-99.99,,2013-03-06 05:52:00,